Tracking 28125 objects as of 2-Oct-2023
HD Live streaming from Space Station
objects crossing your sky now

STARLINK-4615

Track STARLINK-4615 now!
10-day predictions
STARLINK-4615 is classified as:


NORAD ID: 53620
Int'l Code: 2022-104AJ
Perigee: 545.9 km
Apogee: 547.9 km
Inclination: 53.2 °
Period: 95.4 minutes
Semi major axis: 6917 km
RCS: Unknown
Launch date: August 28, 2022
Source: United States (US)
Launch site: AIR FORCE EASTERN TEST RANGE (AFETR)
Your satellite tracking list
Your tracking list is empty




NASA's NSSDC Master Catalog

Two Line Element Set (TLE):
1 53620U 22104AJ  23274.73008504 -.00000685  00000-0 -24975-4 0  9992
2 53620  53.2173 269.1384 0001447 108.5355 251.5794 15.08837873 61397
Source of the keplerian elements: AFSPC